Estación de Trinidad

Ultimos registro cada 15 minutos 70
Estación Fecha / Hora Temperatura Humedad Lluvia Velocidad Dirección Radiación Presion
70 Trinidad 08-05-2026 17:15 15,6 65 0 0,4 152 23 1020,4
69 Trinidad 08-05-2026 17:00 16,2 63 0 0,4 152 33 1020,4
68 Trinidad 08-05-2026 16:45 16,5 63 0 1,3 154 44 1020,7
67 Trinidad 08-05-2026 16:30 17,3 60 0 2,7 153 77 1020,3
66 Trinidad 08-05-2026 16:15 18,5 60 0 0,9 153 121 1020,1
65 Trinidad 08-05-2026 16:00 18,4 59 0 0,9 151 390 1020,1
64 Trinidad 08-05-2026 15:45 18,6 59 0 0 158 244 1020,2
63 Trinidad 08-05-2026 15:30 18,5 59 0 0 154 431 1020,3
62 Trinidad 08-05-2026 15:15 18,6 57 0 1,8 159 221 1020,4
61 Trinidad 08-05-2026 15:00 18,7 58 0 0,4 168 533 1020,4
60 Trinidad 08-05-2026 14:45 18,6 59 0 1,3 160 193 1020,3
59 Trinidad 08-05-2026 14:30 17,9 56 0 0,9 140 591 1020,5
58 Trinidad 08-05-2026 14:15 17,8 56 0 0,4 149 547 1020,6
57 Trinidad 08-05-2026 14:00 18,1 53 0 1,8 158 568 1020,7
56 Trinidad 08-05-2026 13:45 17,7 54 0 0,4 154 587 1021,1
55 Trinidad 08-05-2026 13:30 17,6 53 0 0,4 199 666 1021,3
54 Trinidad 08-05-2026 13:15 17,3 49 0 1,3 200 272 1021,6
53 Trinidad 08-05-2026 13:00 17,4 50 0 0,4 203 387 1021,7
52 Trinidad 08-05-2026 12:45 16,7 50 0 0,4 203 487 1022,1
51 Trinidad 08-05-2026 12:30 15,7 55 0 0,4 203 613 1022,2
50 Trinidad 08-05-2026 12:15 14,6 56 0 0,4 200 677 1022,3
49 Trinidad 08-05-2026 12:00 14 59 0 1,3 204 650 1022,1
48 Trinidad 08-05-2026 11:45 13,7 65 0 0,4 206 364 1022,6
47 Trinidad 08-05-2026 11:30 12,9 66 0 0 123 403 1023
46 Trinidad 08-05-2026 11:15 13 66 0 1,8 118 652 1023,2
45 Trinidad 08-05-2026 11:00 12,4 69 0 0,4 328 561 1023,1
44 Trinidad 08-05-2026 10:45 11,7 70 0 0,9 331 517 1023,1
43 Trinidad 08-05-2026 10:30 11 71 0 1,8 314 489 1023,1
42 Trinidad 08-05-2026 10:15 10,1 75 0 1,3 328 455 1023,4
41 Trinidad 08-05-2026 10:00 9,2 80 0 0,9 19 415 1023,6
40 Trinidad 08-05-2026 09:45 8,4 82 0 0,9 323 378 1023,8
39 Trinidad 08-05-2026 09:30 7,6 84 0 0,9 313 336 1023,9
38 Trinidad 08-05-2026 09:15 6,9 86 0 0 4 125 1024,2
37 Trinidad 08-05-2026 09:00 5,8 90 0 0 5 35 1024,5
36 Trinidad 08-05-2026 08:45 5 92 0 0 5 113 1024,4
35 Trinidad 08-05-2026 08:30 4,2 92 0 0 5 172 1024,3
34 Trinidad 08-05-2026 08:15 3,3 92 0 0 5 111 1024,3
33 Trinidad 08-05-2026 08:00 2,7 91 0 0 5 26 1023,8
32 Trinidad 08-05-2026 07:45 2,8 90 0 0 5 14 1023,7
31 Trinidad 08-05-2026 07:30 3,2 90 0 0,4 5 5 1023,9
30 Trinidad 08-05-2026 07:15 3,1 90 0 0,4 5 0 1023,9
29 Trinidad 08-05-2026 07:00 3,3 91 0 0 7 0 1024,2
28 Trinidad 08-05-2026 06:45 3,1 89 0 0,9 8 0 1024,2
27 Trinidad 08-05-2026 06:30 3,8 89 0 0 8 0 1024,3
26 Trinidad 08-05-2026 06:15 4,1 89 0 0 8 0 1024,5
25 Trinidad 08-05-2026 06:00 4,3 90 0 0,4 8 0 1024,4
24 Trinidad 08-05-2026 05:45 4,1 91 0 0 343 0 1024,3
23 Trinidad 08-05-2026 05:30 4,1 91 0 0 165 0 1024,7
22 Trinidad 08-05-2026 05:15 3,5 90 0 0 165 0 1024,6
21 Trinidad 08-05-2026 05:00 3,1 89 0 0 165 0 1024,4
20 Trinidad 08-05-2026 04:45 3,5 89 0 0 165 0 1024,3
19 Trinidad 08-05-2026 04:30 3,8 88 0 0 165 0 1024,4
18 Trinidad 08-05-2026 04:15 4,2 90 0 0 165 0 1024,3
17 Trinidad 08-05-2026 04:00 3,3 88 0 0 165 0 1024,6
16 Trinidad 08-05-2026 03:45 3,4 88 0 0 165 0 1024,6
15 Trinidad 08-05-2026 03:30 3,6 86 0 0 165 0 1025,1
14 Trinidad 08-05-2026 03:15 4,5 85 0 0,4 165 0 1025,3
13 Trinidad 08-05-2026 03:00 4,6 86 0 0,9 165 0 1025,2
12 Trinidad 08-05-2026 02:45 4,9 83 0 0 165 0 1025,3
11 Trinidad 08-05-2026 02:30 5,7 81 0 0 165 0 1025,2
10 Trinidad 08-05-2026 02:15 6,9 80 0 0 165 0 1025,4
9 Trinidad 08-05-2026 02:00 5,8 82 0 0,9 165 0 1025,4
8 Trinidad 08-05-2026 01:45 6,4 80 0 0,4 165 0 1025,4
7 Trinidad 08-05-2026 01:30 7,4 77 0 0 165 0 1025,6
6 Trinidad 08-05-2026 01:15 7,8 76 0 0,4 165 0 1025,5
5 Trinidad 08-05-2026 01:00 7,7 76 0 0,4 165 0 1025,8
4 Trinidad 08-05-2026 00:45 8,1 74 0 0,9 165 0 1026
3 Trinidad 08-05-2026 00:30 8,2 74 0 0,9 165 0 1025,9
2 Trinidad 08-05-2026 00:15 8,5 74 0 0,9 165 0 1026,1
1 Trinidad 08-05-2026 00:00 8,8 73 0 0,9 166 0 1026,1